• In Uzbekistan
  • List of Countries
  • For 7 days
  • Water Temperature
  • Weather Map
  • Weather Widgets
  • user-avatar
    Login

    Hourly Weather Innsbruck

    Today, 28 February, Friday

    Time Temperature Precipitation Wind Pressure Humidity
    00:00 -12°C° 0.8 mm 3 mps 583 mmHg 92%
    01:00 -12°C° 0.8 mm 3 mps 584 mmHg 94%
    02:00 -14°C° 1.2 mm 4 mps 584 mmHg 94%
    03:00 -14°C° 1.2 mm 5 mps 585 mmHg 93%
    04:00 -15°C° 1.2 mm 6 mps 586 mmHg 93%
    05:00 -15°C° 0.5 mm 5 mps 586 mmHg 93%
    06:00 -15°C° 0.5 mm 4 mps 587 mmHg 94%
    07:00 -15°C° 0.5 mm 3 mps 588 mmHg 94%
    08:00 -14°C° 0.2 mm 3 mps 589 mmHg 88%
    09:00 -13°C° 0.2 mm 3 mps 590 mmHg 83%
    10:00 -12°C° 0.2 mm 3 mps 591 mmHg 77%
    11:00 -9°C° 0 mm 2 mps 592 mmHg 73%
    12:00 -8°C° 0 mm 2 mps 592 mmHg 69%
    13:00 -8°C° 0 mm 2 mps 593 mmHg 65%
    14:00 -6°C° 0 mm 1 mps 592 mmHg 64%
    15:00 -6°C° 0 mm 1 mps 592 mmHg 63%
    16:00 -6°C° 0 mm 1 mps 592 mmHg 62%
    17:00 -7°C° 0 mm 1 mps 591 mmHg 62%
    18:00 -9°C° 0 mm 1 mps 591 mmHg 63%
    19:00 -13°C° 0 mm 2 mps 590 mmHg 63%
    20:00 -12°C° 0 mm 2 mps 590 mmHg 62%
    21:00 -12°C° 0 mm 2 mps 590 mmHg 60%
    22:00 -12°C° 0 mm 2 mps 590 mmHg 59%
    23:00 -12°C° 0 mm 2 mps 590 mmHg 61%

    Tomorrow, 29 February, Saturday

    Time Temperature Precipitation Wind Pressure Humidity
    00:00 -12°C° 0 mm 3 mps 590 mmHg 63%
    01:00 -12°C° 0 mm 3 mps 590 mmHg 66%
    02:00 -12°C° 0 mm 3 mps 590 mmHg 67%
    03:00 -12°C° 0 mm 3 mps 589 mmHg 69%
    04:00 -12°C° 0 mm 3 mps 588 mmHg 70%
    05:00 -12°C° 0 mm 3 mps 588 mmHg 71%
    06:00 -12°C° 0 mm 4 mps 588 mmHg 71%
    07:00 -12°C° 0 mm 4 mps 588 mmHg 71%
    08:00 -11°C° 0 mm 4 mps 588 mmHg 73%
    09:00 -10°C° 0 mm 4 mps 588 mmHg 74%
    10:00 -8°C° 0 mm 4 mps 588 mmHg 75%
    11:00 -8°C° 0 mm 4 mps 587 mmHg 75%
    12:00 -7°C° 0 mm 5 mps 587 mmHg 76%
    13:00 -7°C° 0 mm 5 mps 587 mmHg 76%
    14:00 -7°C° 0 mm 5 mps 586 mmHg 76%
    15:00 -7°C° 0 mm 4 mps 586 mmHg 75%
    16:00 -7°C° 0 mm 4 mps 585 mmHg 75%
    17:00 -9°C° 0 mm 4 mps 585 mmHg 77%
    18:00 -10°C° 0 mm 4 mps 584 mmHg 78%
    19:00 -12°C° 0 mm 4 mps 584 mmHg 79%
    20:00 -12°C° 0 mm 4 mps 584 mmHg 81%
    21:00 -11°C° 0 mm 4 mps 585 mmHg 83%
    22:00 -10°C° 0 mm 3 mps 585 mmHg 85%
    23:00 -12°C° 0 mm 3 mps 585 mmHg 85%

    Day after tomorrow, 1 March, Sunday

    Time Temperature Precipitation Wind Pressure Humidity
    00:00 -10°C° 0 mm 2 mps 585 mmHg 86%
    01:00 -10°C° 0 mm 2 mps 585 mmHg 87%
    02:00 -10°C° 0 mm 2 mps 585 mmHg 88%
    03:00 -10°C° 0 mm 2 mps 584 mmHg 88%
    04:00 -12°C° 0 mm 2 mps 584 mmHg 88%
    05:00 -10°C° 0 mm 2 mps 584 mmHg 89%
    06:00 -10°C° 0 mm 2 mps 584 mmHg 89%
    07:00 -9°C° 0 mm 1 mps 584 mmHg 90%
    08:00 -8°C° 0.1 mm 1 mps 585 mmHg 89%
    09:00 -6°C° 0.1 mm 1 mps 585 mmHg 89%
    10:00 -3°C° 0.1 mm 1 mps 586 mmHg 88%
    11:00 -3°C° 0.1 mm 1 mps 586 mmHg 89%
    12:00 -2°C° 0.1 mm 1 mps 586 mmHg 91%
    13:00 -2°C° 0.1 mm 1 mps 586 mmHg 92%
    14:00 -1°C° 0 mm 1 mps 585 mmHg 93%
    15:00 -3°C° 0 mm 2 mps 585 mmHg 93%
    16:00 -3°C° 0 mm 2 mps 584 mmHg 93%
    17:00 -5°C° 0 mm 2 mps 583 mmHg 93%
    18:00 -6°C° 0 mm 2 mps 583 mmHg 94%
    19:00 -7°C° 0 mm 2 mps 582 mmHg 94%
    20:00 -7°C° 0.1 mm 2 mps 582 mmHg 93%
    21:00 -8°C° 0.1 mm 2 mps 582 mmHg 91%
    22:00 -8°C° 0.1 mm 2 mps 581 mmHg 89%
    23:00 -8°C° 0.1 mm 2 mps 581 mmHg 90%

    2 March, Monday

    Time Temperature Precipitation Wind Pressure Humidity
    00:00 -8°C° 0.1 mm 2 mps 581 mmHg 91%
    01:00 -8°C° 0.1 mm 1 mps 581 mmHg 91%
    02:00 -8°C° 0.5 mm 1 mps 581 mmHg 92%
    03:00 -8°C° 0.5 mm 1 mps 581 mmHg 92%
    04:00 -7°C° 0.5 mm 1 mps 581 mmHg 92%
    05:00 -8°C° 0 mm 1 mps 581 mmHg 90%
    06:00 -9°C° 0 mm 1 mps 581 mmHg 88%
    07:00 -10°C° 0 mm 1 mps 580 mmHg 86%
    08:00 -8°C° 0 mm 1 mps 581 mmHg 84%
    09:00 -6°C° 0 mm 1 mps 582 mmHg 82%
    10:00 -3°C° 0 mm 1 mps 583 mmHg 80%
    11:00 -4°C° 0 mm 2 mps 582 mmHg 82%
    12:00 -4°C° 0 mm 2 mps 582 mmHg 85%
    13:00 -3°C° 0 mm 2 mps 582 mmHg 87%
    14:00 -3°C° 0.1 mm 2 mps 582 mmHg 87%
    15:00 -3°C° 0.1 mm 2 mps 582 mmHg 87%
    16:00 -3°C° 0.1 mm 2 mps 581 mmHg 87%
    17:00 -4°C° 1 mm 2 mps 581 mmHg 90%
    18:00 -4°C° 1 mm 1 mps 581 mmHg 94%
    19:00 -6°C° 1 mm 1 mps 581 mmHg 97%
    20:00 -6°C° 1.3 mm 1 mps 581 mmHg 96%
    21:00 -7°C° 1.3 mm 1 mps 581 mmHg 95%
    22:00 -7°C° 1.3 mm 1 mps 582 mmHg 94%
    23:00 -7°C° 0.3 mm 1 mps 582 mmHg 93%

    3 March, Tuesday

    Time Temperature Precipitation Wind Pressure Humidity
    00:00 -8°C° 0.3 mm 1 mps 581 mmHg 92%
    01:00 -9°C° 0.3 mm 1 mps 581 mmHg 91%
    02:00 -9°C° 0 mm 1 mps 581 mmHg 91%
    03:00 -9°C° 0 mm 1 mps 581 mmHg 91%
    04:00 -10°C° 0 mm 1 mps 581 mmHg 92%
    05:00 -10°C° 0 mm 1 mps 582 mmHg 91%
    06:00 -11°C° 0 mm 1 mps 582 mmHg 91%
    07:00 -11°C° 0 mm 1 mps 582 mmHg 91%
    08:00 -12°C° 0 mm 2 mps 583 mmHg 90%
    09:00 -9°C° 0 mm 2 mps 584 mmHg 88%
    10:00 -8°C° 0 mm 2 mps 585 mmHg 87%
    11:00 -7°C° 0.1 mm 2 mps 585 mmHg 86%
    12:00 -7°C° 0.1 mm 2 mps 586 mmHg 84%
    13:00 -6°C° 0.1 mm 2 mps 586 mmHg 82%
    14:00 -6°C° 0.2 mm 2 mps 586 mmHg 82%
    15:00 -6°C° 0.2 mm 2 mps 586 mmHg 81%
    16:00 -6°C° 0.2 mm 2 mps 586 mmHg 80%
    17:00 -7°C° 0 mm 1 mps 586 mmHg 84%
    18:00 -9°C° 0 mm 1 mps 585 mmHg 88%
    19:00 -11°C° 0 mm 1 mps 585 mmHg 93%
    20:00 -11°C° 0 mm 1 mps 585 mmHg 91%
    21:00 -11°C° 0 mm 1 mps 585 mmHg 89%
    22:00 -11°C° 0 mm 1 mps 585 mmHg 87%
    23:00 -11°C° 0 mm 1 mps 585 mmHg 83%

    4 March, Wednesday

    Time Temperature Precipitation Wind Pressure Humidity
    00:00 -11°C° 0 mm 1 mps 585 mmHg 79%
    01:00 -12°C° 0 mm 1 mps 585 mmHg 76%
    02:00 -14°C° 0 mm 2 mps 584 mmHg 74%
    03:00 -14°C° 0 mm 2 mps 584 mmHg 72%
    04:00 -14°C° 0 mm 2 mps 584 mmHg 70%
    05:00 -14°C° 0 mm 2 mps 584 mmHg 69%
    06:00 -13°C° 0 mm 2 mps 583 mmHg 68%
    07:00 -13°C° 0 mm 2 mps 583 mmHg 68%
    08:00 -10°C° 0 mm 2 mps 584 mmHg 69%
    09:00 -8°C° 0 mm 2 mps 584 mmHg 71%
    10:00 -6°C° 0 mm 2 mps 585 mmHg 72%
    11:00 -5°C° 0 mm 2 mps 585 mmHg 75%
    12:00 -5°C° 0 mm 2 mps 585 mmHg 78%
    13:00 -5°C° 0 mm 3 mps 584 mmHg 81%
    14:00 -4°C° 0.1 mm 2 mps 584 mmHg 83%
    15:00 -4°C° 0.1 mm 2 mps 584 mmHg 85%
    16:00 -5°C° 0.1 mm 2 mps 583 mmHg 88%
    17:00 -4°C° 0.4 mm 1 mps 583 mmHg 89%
    18:00 -6°C° 0.4 mm 1 mps 583 mmHg 91%
    19:00 -7°C° 0.4 mm 1 mps 583 mmHg 93%
    20:00 -7°C° 0.4 mm 1 mps 583 mmHg 93%
    21:00 -7°C° 0.4 mm 1 mps 583 mmHg 93%
    22:00 -7°C° 0.4 mm 1 mps 583 mmHg 93%
    23:00 -8°C° 0.1 mm 1 mps 583 mmHg 92%
    Show more